Location: Amsterdam
(30.7274°N, 84.4357°W)
Time: 17:03:02
(UTC+00:00)

Injun/Solrad 3 - Pass Details

Date: 26 February 2026
Orbit: 871 x 985 km, 66.8° (Epoch: 11 March)

Event Time Altitude Azimuth Distance (km) Brightness Sun altitude
Rises 15:50:05 0° 248° (WSW) 3,450 10.7 41.2°
Reaches altitude 10° 15:53:29 10° 268° (W) 2,521 10.0 41.7°
Maximum altitude 15:57:10 17° 308° (NW) 2,077 9.5 42.2°
Drops below altitude 10° 16:00:54 10° 347° (NNW) 2,555 9.9 42.7°
Sets 16:04:24 0° 8° (N) 3,518 10.6 43.2°
